Weather History for Cape Girardeau, MO

Change the Weather History Date:

Wednesday, November 28, 2012

  Actual Average Record
Temperature  
Mean Temperature 36 °F 41 °F  
Max Temperature 50 °F 51 °F 69 °F (1998)
Min Temperature 22 °F 32 °F 18 °F (1976)
Degree Days  
Heating Degree Days 29 24  
Month to date heating degree days 552 500  
Since 1 July heating degree days 897 803  
Cooling Degree Days 0 0  
Month to date cooling degree days 0 0  
Year to date cooling degree days 1784 1451  
Moisture  
Dew Point 26 °F    
Average Humidity 69    
Maximum Humidity 96    
Minimum Humidity 42    
Precipitation  
Precipitation 0.00 in 0.16 in 1.32 in (2001)
Month to date precipitation 1.32 4.12  
Year to date precipitation 25.28 42.24  
Sea Level Pressure  
Sea Level Pressure 30.42 in    
Wind  
Wind Speed 1 mph (SSW)    
Max Wind Speed 8 mph    
Max Gust Speed 9 mph    
Visibility 8 miles    
Events      
T = Trace of Precipitation, MM = Missing Value Source: NWS Daily Summary

Daily Weather History Graph

Daily Weather History Graph

Search for Another Location

Airport:

Trip Planner

Search our weather history database for the weather conditions in past years. The results will help you decide how hot, cold, wet, or windy it might be!

Date:

Astronomy

Nov. 28, 2012 Rise Set
Actual Time 6:51 AM CST 4:41 PM CST
Civil Twilight 6:22 AM CST 5:10 PM CST
Nautical Twilight 5:50 AM CST 5:42 PM CST
Astronomical Twilight 5:19 AM CST 6:13 PM CST
Moon 4:56 PM CST (11/28) 6:48 AM CST (11/28)
Length of Visible Light 10h 47m
Length of Day
9h 50m
Full, 100% of the Moon is Illuminated
Nov 28
Full
Dec 6
Last Quarter
Dec 13
New
Dec 19
First Quarter
Dec 28
Full

Hourly Weather History & Observations

Time (CST) Temp. Windchill Dew Point Humidity Pressure Visibility Wind Dir Wind Speed Gust Speed Precip Events Conditions
12:53 AM 26.1 °F - 24.1 °F 92% 30.39 in 6.0 mi Calm Calm - N/A   Clear
1:53 AM 24.1 °F 19.7 °F 21.0 °F 88% 30.39 in 6.0 mi SW 3.5 mph - N/A   Clear
2:53 AM 23.0 °F 18.4 °F 21.0 °F 92% 30.41 in 6.0 mi West 3.5 mph - N/A   Clear
3:53 AM 23.0 °F - 21.0 °F 92% 30.41 in 6.0 mi Calm Calm - N/A   Clear
4:53 AM 23.0 °F - 21.0 °F 92% 30.42 in 6.0 mi Calm Calm - N/A   Clear
5:53 AM 23.0 °F 18.4 °F 19.9 °F 88% 30.43 in 7.0 mi East 3.5 mph - N/A   Clear
6:53 AM 23.0 °F - 21.0 °F 92% 30.45 in 5.0 mi Calm Calm - N/A   Clear
7:53 AM 26.1 °F - 24.1 °F 92% 30.47 in 5.0 mi Calm Calm - N/A   Clear
8:53 AM 32.0 °F - 28.0 °F 85% 30.48 in 5.0 mi Calm Calm - N/A   Clear
9:53 AM 37.0 °F - 30.9 °F 79% 30.48 in 8.0 mi Calm Calm - N/A   Clear
10:53 AM 41.0 °F - 30.9 °F 67% 30.48 in 9.0 mi Calm Calm - N/A   Clear
11:53 AM 46.0 °F - 25.0 °F 44% 30.46 in 10.0 mi Calm Calm - N/A   Clear
12:53 PM 46.9 °F - 25.0 °F 42% 30.43 in 10.0 mi Calm Calm - N/A   Clear
1:53 PM 48.9 °F - 26.1 °F 41% 30.41 in 10.0 mi Calm Calm - N/A   Clear
2:53 PM 48.9 °F - 26.1 °F 41% 30.40 in 10.0 mi Calm Calm - N/A   Clear
3:53 PM 46.9 °F - 28.9 °F 50% 30.40 in 10.0 mi Calm Calm - N/A   Clear
4:53 PM 42.1 °F 39.2 °F 30.0 °F 62% 30.39 in 10.0 mi South 4.6 mph - N/A   Clear
5:53 PM 37.9 °F 34.4 °F 28.0 °F 68% 30.40 in 10.0 mi South 4.6 mph - N/A   Clear
6:53 PM 35.1 °F - 28.0 °F 76% 30.40 in 10.0 mi Calm Calm - N/A   Clear
7:53 PM 32.0 °F - 27.0 °F 82% 30.40 in 10.0 mi Calm Calm - N/A   Clear
8:53 PM 30.9 °F - 27.0 °F 85% 30.38 in 10.0 mi Calm Calm - N/A   Clear
9:53 PM 30.0 °F - 26.1 °F 85% 30.38 in 9.0 mi Calm Calm - N/A   Clear
10:53 PM 30.0 °F - 27.0 °F 88% 30.38 in 9.0 mi Calm Calm - N/A   Clear
11:53 PM 28.9 °F - 26.1 °F 89% 30.37 in 8.0 mi Calm Calm - N/A   Clear